Location: Bonneuil
(46.1010°N, 2.9693°E)
Time: 13:31:11
(UTC+00:00)

Spot 2 Rocket - Pass Details

Date: 09 April 2020
Orbit: 757 x 773 km, 98.6° (Epoch: 26 May)

Event Time Altitude Azimuth Distance (km) Brightness Sun altitude
Exits shadow 20:22:15 36° 127° (SE) 1,203 4.0 -18.9°
Maximum altitude 20:24:02 55° 71° (ENE) 925 3.7 -19.2°
Drops below altitude 10° 20:29:02 10° 354° (N) 2,323 6.5 -19.9°
Sets 20:31:23 0° 350° (N) 3,252 7.5 -20.2°
